Time,TemperatureF,DewpointF,PressureIn,WindDirection,WindDirectionDegrees,WindSpeedMPH,WindSpeedGustMPH,Humidity,HourlyPrecipIn,Conditions,Clouds,dailyrainin,SoftwareType,DateUTC
2013-03-16 00:00:00,33.1,31.8,29.90,NNW,341,0.0,0.0,95,0.00,,---,0.00,VWS V14.01,2013-03-16 04:00:00,
2013-03-16 00:05:00,33.1,31.8,29.90,NNW,341,0.0,0.0,95,0.00,,---,0.00,VWS V14.01,2013-03-16 04:05:00,
2013-03-16 00:10:00,33.1,31.8,29.90,NNW,341,0.0,0.0,95,0.00,,---,0.00,VWS V14.01,2013-03-16 04:10:00,
2013-03-16 00:15:00,33.1,31.8,29.90,NNW,341,0.0,0.0,95,0.00,,---,0.00,VWS V14.01,2013-03-16 04:15:00,
2013-03-16 00:20:00,33.1,31.8,29.89,NNW,341,0.0,0.0,95,0.00,,---,0.00,VWS V14.01,2013-03-16 04:20:00,
2013-03-16 00:25:00,33.0,31.7,29.89,NNW,341,0.0,0.0,95,0.00,,---,0.00,VWS V14.01,2013-03-16 04:25:00,
2013-03-16 00:30:00,33.0,31.7,29.89,NNW,341,0.0,0.0,95,0.00,,---,0.00,VWS V14.01,2013-03-16 04:30:00,
2013-03-16 00:35:00,33.0,31.7,29.89,NNW,341,0.0,0.0,95,0.00,,---,0.00,VWS V14.01,2013-03-16 04:35:00,
2013-03-16 00:40:00,33.0,31.7,29.89,NNW,341,0.0,0.0,95,0.00,,---,0.00,VWS V14.01,2013-03-16 04:40:00,
2013-03-16 00:45:00,33.0,31.7,29.89,NNW,341,0.0,0.0,95,0.00,,---,0.00,VWS V14.01,2013-03-16 04:45:00,
2013-03-16 00:50:00,33.0,31.7,29.89,NNW,341,0.0,0.0,95,0.00,,---,0.00,VWS V14.01,2013-03-16 04:50:00,
2013-03-16 00:55:00,33.0,31.7,29.89,NNW,341,0.0,0.0,95,0.00,,---,0.00,VWS V14.01,2013-03-16 04:55:00,
2013-03-16 01:00:00,33.0,31.7,29.89,NNW,341,0.0,0.0,95,0.00,,---,0.00,VWS V14.01,2013-03-16 05:00:00,
2013-03-16 01:05:00,33.0,31.7,29.88,NNW,341,0.0,0.0,95,0.00,,---,0.00,VWS V14.01,2013-03-16 05:05:00,
2013-03-16 01:10:00,33.0,31.7,29.88,NNW,341,0.0,0.0,95,0.00,,---,0.00,VWS V14.01,2013-03-16 05:10:00,
2013-03-16 01:15:00,33.0,31.7,29.88,NNW,341,0.0,0.0,95,0.00,,---,0.00,VWS V14.01,2013-03-16 05:15:00,
2013-03-16 01:20:00,33.0,31.7,29.88,NNW,341,0.0,0.0,95,0.00,,---,0.00,VWS V14.01,2013-03-16 05:20:00,
2013-03-16 01:25:00,33.0,31.7,29.87,NNW,341,0.0,0.0,95,0.00,,---,0.00,VWS V14.01,2013-03-16 05:25:00,
2013-03-16 01:30:00,33.0,31.7,29.87,NNE,32,0.0,2.0,95,0.00,,---,0.00,VWS V14.01,2013-03-16 05:30:00,
2013-03-16 01:35:00,33.0,31.7,29.86,ENE,71,0.0,2.0,95,0.00,,---,0.00,VWS V14.01,2013-03-16 05:35:00,
2013-03-16 01:40:00,33.0,32.0,29.86,ENE,71,0.0,2.0,96,0.00,,---,0.00,VWS V14.01,2013-03-16 05:40:00,
2013-03-16 01:45:00,33.0,32.0,29.86,ENE,71,0.0,2.0,96,0.00,,---,0.00,VWS V14.01,2013-03-16 05:45:00,
2013-03-16 01:50:00,33.0,32.0,29.86,ENE,71,0.0,2.0,96,0.00,,---,0.00,VWS V14.01,2013-03-16 05:50:00,
2013-03-16 01:55:00,33.0,31.7,29.86,ENE,71,0.0,2.0,95,0.00,,---,0.00,VWS V14.01,2013-03-16 05:55:00,
2013-03-16 02:00:00,33.0,31.7,29.85,ENE,71,0.0,0.0,95,0.00,,---,0.00,VWS V14.01,2013-03-16 06:00:00,
2013-03-16 02:05:00,33.0,31.7,29.85,ENE,71,0.0,0.0,95,0.00,,---,0.00,VWS V14.01,2013-03-16 06:05:00,
2013-03-16 02:10:00,33.0,31.7,29.85,ENE,71,0.0,0.0,95,0.00,,---,0.00,VWS V14.01,2013-03-16 06:10:00,
2013-03-16 02:15:00,33.0,31.7,29.85,ENE,71,0.0,1.0,95,0.00,,---,0.00,VWS V14.01,2013-03-16 06:15:00,
2013-03-16 02:20:00,33.0,31.7,29.84,ENE,71,1.0,1.0,95,0.00,,---,0.00,VWS V14.01,2013-03-16 06:20:00,
2013-03-16 02:25:00,33.0,31.7,29.85,ENE,71,0.0,1.0,95,0.00,,---,0.00,VWS V14.01,2013-03-16 06:25:00,
2013-03-16 02:30:00,33.0,31.7,29.85,ENE,71,0.0,0.0,95,0.00,,---,0.00,VWS V14.01,2013-03-16 06:30:00,
2013-03-16 02:36:00,33.0,32.0,29.84,ENE,71,0.0,0.0,96,0.00,,---,0.00,VWS V14.01,2013-03-16 06:36:00,
2013-03-16 02:41:00,33.0,32.0,29.84,ENE,71,0.0,0.0,96,0.00,,---,0.00,VWS V14.01,2013-03-16 06:41:00,
2013-03-16 02:46:00,33.0,32.0,29.84,ENE,71,0.0,0.0,96,0.00,,---,0.00,VWS V14.01,2013-03-16 06:46:00,
2013-03-16 02:51:00,33.0,32.0,29.83,ENE,71,0.0,0.0,96,0.00,,---,0.00,VWS V14.01,2013-03-16 06:51:00,
2013-03-16 02:56:00,32.9,31.9,29.83,ENE,71,0.0,0.0,96,0.00,,---,0.00,VWS V14.01,2013-03-16 06:56:00,
2013-03-16 03:00:00,32.9,31.9,29.83,ENE,71,0.0,0.0,96,0.00,,---,0.00,VWS V14.01,2013-03-16 07:00:00,
2013-03-16 03:01:00,32.9,31.9,29.83,ENE,71,0.0,2.0,96,0.00,,---,0.00,VWS V14.01,2013-03-16 07:01:00,
2013-03-16 03:06:00,32.9,31.9,29.83,ENE,71,0.0,2.0,96,0.00,,---,0.00,VWS V14.01,2013-03-16 07:06:00,
2013-03-16 03:11:00,32.9,31.9,29.83,ENE,71,0.0,2.0,96,0.00,,---,0.00,VWS V14.01,2013-03-16 07:11:00,
2013-03-16 03:16:00,32.9,31.9,29.83,ENE,71,0.0,2.0,96,0.00,,---,0.00,VWS V14.01,2013-03-16 07:16:00,
2013-03-16 03:21:00,32.9,31.9,29.83,ENE,71,0.0,2.0,96,0.00,,---,0.00,VWS V14.01,2013-03-16 07:21:00,
2013-03-16 03:26:00,32.9,31.9,29.83,ENE,71,0.0,2.0,96,0.00,,---,0.00,VWS V14.01,2013-03-16 07:26:00,
2013-03-16 03:30:00,32.9,31.9,29.83,ENE,71,0.0,2.0,96,0.00,,---,0.00,VWS V14.01,2013-03-16 07:30:00,
2013-03-16 03:31:00,32.8,31.8,29.83,ENE,71,0.0,0.0,96,0.00,,---,0.00,VWS V14.01,2013-03-16 07:31:00,
2013-03-16 03:36:00,32.9,31.9,29.82,ENE,71,0.0,0.0,96,0.00,,---,0.00,VWS V14.01,2013-03-16 07:36:00,
2013-03-16 03:41:00,32.9,31.9,29.82,ENE,71,0.0,1.0,96,0.00,,---,0.00,VWS V14.01,2013-03-16 07:41:00,
2013-03-16 03:46:00,32.8,31.8,29.82,ENE,71,0.0,1.0,96,0.00,,---,0.00,VWS V14.01,2013-03-16 07:46:00,
2013-03-16 03:51:00,32.8,31.8,29.82,ENE,71,0.0,1.0,96,0.00,,---,0.00,VWS V14.01,2013-03-16 07:51:00,
2013-03-16 03:57:00,32.8,31.8,29.81,ENE,71,0.0,1.0,96,0.00,,---,0.00,VWS V14.01,2013-03-16 07:57:00,
2013-03-16 04:00:00,32.8,31.8,29.81,ENE,71,0.0,1.0,96,0.00,,---,0.00,VWS V14.01,2013-03-16 08:00:00,
2013-03-16 04:02:00,32.8,31.8,29.81,ENE,71,0.0,0.0,96,0.00,,---,0.00,VWS V14.01,2013-03-16 08:02:00,
2013-03-16 04:07:00,32.8,31.8,29.80,ENE,71,0.0,0.0,96,0.00,,---,0.00,VWS V14.01,2013-03-16 08:07:00,
2013-03-16 04:12:00,32.8,31.8,29.80,ENE,71,0.0,0.0,96,0.00,,---,0.00,VWS V14.01,2013-03-16 08:12:00,
2013-03-16 04:17:00,32.8,31.8,29.80,ENE,71,0.0,0.0,96,0.00,,---,0.00,VWS V14.01,2013-03-16 08:17:00,
2013-03-16 04:22:00,32.7,31.7,29.80,ENE,71,0.0,0.0,96,0.00,,---,0.00,VWS V14.01,2013-03-16 08:22:00,
2013-03-16 04:27:00,32.7,31.7,29.79,ENE,71,0.0,2.0,96,0.00,,---,0.00,VWS V14.01,2013-03-16 08:27:00,
2013-03-16 04:30:00,32.7,31.7,29.79,ENE,71,0.0,2.0,96,0.00,,---,0.00,VWS V14.01,2013-03-16 08:30:00,
2013-03-16 04:32:00,32.7,31.7,29.78,East,80,0.0,2.0,96,0.00,,---,0.00,VWS V14.01,2013-03-16 08:32:00,
2013-03-16 04:37:00,32.7,31.7,29.78,East,80,0.0,2.0,96,0.00,,---,0.00,VWS V14.01,2013-03-16 08:37:00,
2013-03-16 04:42:00,32.7,31.7,29.78,East,80,0.0,2.0,96,0.00,,---,0.00,VWS V14.01,2013-03-16 08:42:00,
2013-03-16 04:47:00,32.7,31.7,29.78,ENE,64,0.0,2.0,96,0.00,,---,0.00,VWS V14.01,2013-03-16 08:47:00,
2013-03-16 04:52:00,32.7,31.7,29.77,ENE,64,0.0,2.0,96,0.00,,---,0.00,VWS V14.01,2013-03-16 08:52:00,
2013-03-16 04:57:00,32.7,31.7,29.77,ENE,64,0.0,2.0,96,0.00,,---,0.00,VWS V14.01,2013-03-16 08:57:00,
2013-03-16 05:00:00,32.7,31.7,29.77,ENE,64,0.0,2.0,96,0.00,,---,0.00,VWS V14.01,2013-03-16 09:00:00,
2013-03-16 05:02:00,32.7,31.7,29.77,East,80,0.0,1.0,96,0.00,,---,0.00,VWS V14.01,2013-03-16 09:02:00,
2013-03-16 05:07:00,32.7,31.7,29.77,NE,40,0.0,2.0,96,0.00,,---,0.00,VWS V14.01,2013-03-16 09:07:00,
2013-03-16 05:12:00,32.7,31.7,29.77,NE,40,0.0,2.0,96,0.00,,---,0.00,VWS V14.01,2013-03-16 09:12:00,
2013-03-16 05:17:00,32.7,31.7,29.77,NE,53,0.0,2.0,96,0.00,,---,0.00,VWS V14.01,2013-03-16 09:17:00,
2013-03-16 05:22:00,32.7,31.7,29.78,ENE,69,1.0,2.0,96,0.00,,---,0.00,VWS V14.01,2013-03-16 09:22:00,
2013-03-16 05:27:00,32.8,31.8,29.78,ENE,75,0.0,2.0,96,0.00,,---,0.00,VWS V14.01,2013-03-16 09:27:00,
2013-03-16 05:30:00,32.8,31.8,29.78,ENE,75,0.0,2.0,96,0.00,,---,0.00,VWS V14.01,2013-03-16 09:30:00,
2013-03-16 05:32:00,32.8,31.8,29.78,ENE,75,0.0,1.0,96,0.00,,---,0.00,VWS V14.01,2013-03-16 09:32:00,
2013-03-16 05:37:00,32.8,31.8,29.78,South,186,0.0,2.0,96,0.00,,---,0.00,VWS V14.01,2013-03-16 09:37:00,
2013-03-16 05:42:00,32.8,31.8,29.79,SSW,199,0.0,2.0,96,0.00,,---,0.00,VWS V14.01,2013-03-16 09:42:00,
2013-03-16 05:47:00,32.8,31.8,29.79,SSW,199,0.0,2.0,96,0.00,,---,0.00,VWS V14.01,2013-03-16 09:47:00,
2013-03-16 05:52:00,32.8,31.8,29.79,SSW,199,0.0,2.0,96,0.00,,---,0.00,VWS V14.01,2013-03-16 09:52:00,
2013-03-16 05:57:00,32.8,31.8,29.79,SSW,199,0.0,2.0,96,0.00,,---,0.00,VWS V14.01,2013-03-16 09:57:00,
2013-03-16 06:00:00,32.8,31.8,29.79,SSW,199,0.0,2.0,96,0.00,,---,0.00,VWS V14.01,2013-03-16 10:00:00,
2013-03-16 06:02:00,32.8,31.8,29.79,SSW,199,0.0,0.0,96,0.00,,---,0.00,VWS V14.01,2013-03-16 10:02:00,
2013-03-16 06:07:00,32.8,31.8,29.79,SSW,199,0.0,0.0,96,0.00,,---,0.00,VWS V14.01,2013-03-16 10:07:00,
2013-03-16 06:12:00,32.7,31.7,29.78,SSW,199,0.0,0.0,96,0.00,,---,0.00,VWS V14.01,2013-03-16 10:12:00,
2013-03-16 06:17:00,32.7,31.7,29.79,SSW,199,0.0,0.0,96,0.00,,---,0.00,VWS V14.01,2013-03-16 10:17:00,
2013-03-16 06:22:00,32.6,31.6,29.78,SSW,199,0.0,0.0,96,0.00,,---,0.00,VWS V14.01,2013-03-16 10:22:00,
2013-03-16 06:27:00,32.6,31.6,29.78,SSW,199,0.0,0.0,96,0.00,,---,0.00,VWS V14.01,2013-03-16 10:27:00,
2013-03-16 06:30:00,32.7,31.7,29.78,SSW,199,0.0,0.0,96,0.00,,---,0.00,VWS V14.01,2013-03-16 10:30:00,
2013-03-16 06:32:00,32.6,31.6,29.78,SSW,199,0.0,0.0,96,0.00,,---,0.00,VWS V14.01,2013-03-16 10:32:00,
2013-03-16 06:37:00,32.6,31.6,29.78,SSW,199,0.0,0.0,96,0.00,,---,0.00,VWS V14.01,2013-03-16 10:37:00,
2013-03-16 06:42:00,32.6,31.6,29.78,South,188,1.0,1.0,96,0.00,,---,0.00,VWS V14.01,2013-03-16 10:42:00,
2013-03-16 06:48:00,32.5,31.5,29.78,ESE,114,0.0,1.0,96,0.00,,---,0.00,VWS V14.01,2013-03-16 10:48:00,
2013-03-16 06:53:00,32.5,31.5,29.79,ESE,114,0.0,1.0,96,0.00,,---,0.00,VWS V14.01,2013-03-16 10:53:00,
2013-03-16 06:58:00,32.4,31.4,29.79,ESE,114,0.0,0.0,96,0.00,,---,0.00,VWS V14.01,2013-03-16 10:58:00,
2013-03-16 07:00:00,32.5,31.5,29.79,ESE,114,0.0,1.0,96,0.00,,---,0.00,VWS V14.01,2013-03-16 11:00:00,
2013-03-16 07:03:00,32.4,31.4,29.79,ESE,114,0.0,0.0,96,0.00,,---,0.00,VWS V14.01,2013-03-16 11:03:00,
2013-03-16 07:08:00,32.4,31.4,29.79,ESE,113,0.0,0.0,96,0.00,,---,0.00,VWS V14.01,2013-03-16 11:08:00,
2013-03-16 07:13:00,32.4,31.4,29.78,East,97,0.0,2.0,96,0.00,,---,0.00,VWS V14.01,2013-03-16 11:13:00,
2013-03-16 07:18:00,32.3,31.3,29.78,East,97,0.0,2.0,96,0.00,,---,0.00,VWS V14.01,2013-03-16 11:18:00,
2013-03-16 07:23:00,32.3,31.3,29.78,East,97,0.0,2.0,96,0.00,,---,0.00,VWS V14.01,2013-03-16 11:23:00,
2013-03-16 07:28:00,32.2,31.2,29.77,East,97,0.0,0.0,96,0.00,,---,0.00,VWS V14.01,2013-03-16 11:28:00,
2013-03-16 07:30:00,32.2,31.2,29.77,East,97,0.0,2.0,96,0.00,,---,0.00,VWS V14.01,2013-03-16 11:30:00,
2013-03-16 07:33:00,32.1,31.1,29.77,East,97,0.0,0.0,96,0.00,,---,0.00,VWS V14.01,2013-03-16 11:33:00,
2013-03-16 07:38:00,32.1,31.1,29.77,ESE,111,0.0,3.0,96,0.00,,---,0.00,VWS V14.01,2013-03-16 11:38:00,
2013-03-16 07:43:00,32.1,31.1,29.77,ESE,111,0.0,3.0,96,0.00,,---,0.00,VWS V14.01,2013-03-16 11:43:00,
2013-03-16 07:48:00,32.1,31.1,29.77,ESE,111,0.0,3.0,96,0.00,,---,0.00,VWS V14.01,2013-03-16 11:48:00,
2013-03-16 07:53:00,32.1,31.1,29.77,ESE,111,0.0,3.0,96,0.00,,---,0.00,VWS V14.01,2013-03-16 11:53:00,
2013-03-16 07:58:00,32.1,31.1,29.77,SSE,156,0.0,0.0,96,0.00,,---,0.00,VWS V14.01,2013-03-16 11:58:00,
2013-03-16 08:00:00,32.1,31.1,29.77,SSE,156,0.0,3.0,96,0.00,,---,0.00,VWS V14.01,2013-03-16 12:00:00,
2013-03-16 08:03:00,32.1,31.1,29.77,SSE,156,0.0,0.0,96,0.00,,---,0.00,VWS V14.01,2013-03-16 12:03:00,
2013-03-16 08:08:00,32.1,31.1,29.77,SSE,156,0.0,0.0,96,0.00,,---,0.00,VWS V14.01,2013-03-16 12:08:00,
2013-03-16 08:13:00,32.0,31.0,29.76,SSW,201,0.0,0.0,96,0.00,,---,0.00,VWS V14.01,2013-03-16 12:13:00,
2013-03-16 08:18:00,32.1,31.1,29.75,SE,128,0.0,2.0,96,0.00,,---,0.00,VWS V14.01,2013-03-16 12:18:00,
2013-03-16 08:23:00,32.0,31.0,29.75,SE,127,2.0,2.0,96,0.00,,---,0.00,VWS V14.01,2013-03-16 12:23:00,
2013-03-16 08:28:00,32.1,31.1,29.75,ESE,106,0.0,0.0,96,0.00,,---,0.00,VWS V14.01,2013-03-16 12:28:00,
2013-03-16 08:30:00,32.0,31.0,29.75,ESE,106,0.0,3.0,96,0.00,,---,0.00,VWS V14.01,2013-03-16 12:30:00,
2013-03-16 08:33:00,32.1,31.1,29.74,ESE,106,0.0,1.0,96,0.00,,---,0.00,VWS V14.01,2013-03-16 12:33:00,
2013-03-16 08:38:00,32.1,31.1,29.75,ESE,106,0.0,1.0,96,0.00,,---,0.00,VWS V14.01,2013-03-16 12:38:00,
2013-03-16 08:43:00,32.1,31.1,29.77,ENE,61,0.0,2.0,96,0.00,,---,0.00,VWS V14.01,2013-03-16 12:43:00,
2013-03-16 08:48:00,32.1,31.1,29.76,South,191,0.0,2.0,96,0.00,,---,0.00,VWS V14.01,2013-03-16 12:48:00,
2013-03-16 08:53:00,32.1,31.1,29.76,East,84,0.0,2.0,96,0.00,,---,0.00,VWS V14.01,2013-03-16 12:53:00,
2013-03-16 08:58:00,32.1,31.1,29.76,East,84,0.0,0.0,96,0.00,,---,0.00,VWS V14.01,2013-03-16 12:58:00,
2013-03-16 09:00:00,32.1,31.1,29.76,East,84,0.0,2.0,96,0.00,,---,0.00,VWS V14.01,2013-03-16 13:00:00,
2013-03-16 09:03:00,32.2,31.2,29.76,East,84,0.0,0.0,96,0.00,,---,0.00,VWS V14.01,2013-03-16 13:03:00,
2013-03-16 09:08:00,32.2,31.2,29.75,East,84,0.0,0.0,96,0.00,,---,0.00,VWS V14.01,2013-03-16 13:08:00,
2013-03-16 09:13:00,32.3,31.3,29.75,East,84,0.0,1.0,96,0.00,,---,0.00,VWS V14.01,2013-03-16 13:13:00,
2013-03-16 09:18:00,32.3,31.3,29.75,SSW,213,0.0,1.0,96,0.00,,---,0.00,VWS V14.01,2013-03-16 13:18:00,
2013-03-16 09:23:00,32.3,31.3,29.75,SSE,159,0.0,2.0,96,0.00,,---,0.00,VWS V14.01,2013-03-16 13:23:00,
2013-03-16 09:28:00,32.3,31.3,29.75,SSE,159,1.0,1.0,96,0.00,,---,0.00,VWS V14.01,2013-03-16 13:28:00,
2013-03-16 09:30:00,32.3,31.3,29.75,SSE,159,1.0,2.0,96,0.00,,---,0.00,VWS V14.01,2013-03-16 13:30:00,
2013-03-16 09:33:00,32.3,31.3,29.75,SSE,158,0.0,2.0,96,0.00,,---,0.00,VWS V14.01,2013-03-16 13:33:00,
2013-03-16 09:39:00,32.4,31.4,29.76,SSE,158,0.0,2.0,96,0.00,,---,0.00,VWS V14.01,2013-03-16 13:39:00,
2013-03-16 09:44:00,32.4,31.4,29.76,SSE,152,0.0,2.0,96,0.00,,---,0.00,VWS V14.01,2013-03-16 13:44:00,
2013-03-16 09:49:00,32.4,31.4,29.76,SE,143,0.0,2.0,96,0.00,,---,0.00,VWS V14.01,2013-03-16 13:49:00,
2013-03-16 09:54:00,32.5,31.5,29.76,SE,143,0.0,2.0,96,0.00,,---,0.00,VWS V14.01,2013-03-16 13:54:00,
2013-03-16 09:59:00,32.5,31.5,29.75,SE,143,0.0,0.0,96,0.00,,---,0.00,VWS V14.01,2013-03-16 13:59:00,
2013-03-16 10:00:00,32.5,31.5,29.75,SE,143,0.0,2.0,96,0.00,,---,0.00,VWS V14.01,2013-03-16 14:00:00,
2013-03-16 10:04:00,32.5,31.5,29.75,SE,143,0.0,1.0,96,0.00,,---,0.00,VWS V14.01,2013-03-16 14:04:00,
2013-03-16 10:09:00,32.5,31.5,29.75,SE,143,0.0,2.0,96,0.00,,---,0.00,VWS V14.01,2013-03-16 14:09:00,
2013-03-16 10:14:00,32.5,31.5,29.75,SE,143,0.0,2.0,96,0.00,,---,0.00,VWS V14.01,2013-03-16 14:14:00,
2013-03-16 10:19:00,32.6,31.6,29.75,SE,143,0.0,2.0,96,0.00,,---,0.00,VWS V14.01,2013-03-16 14:19:00,
2013-03-16 10:24:00,32.6,31.6,29.75,SE,143,0.0,2.0,96,0.00,,---,0.00,VWS V14.01,2013-03-16 14:24:00,
2013-03-16 10:29:00,32.7,31.7,29.75,SE,143,0.0,0.0,96,0.00,,---,0.00,VWS V14.01,2013-03-16 14:29:00,
2013-03-16 10:30:00,32.6,31.6,29.75,SE,143,0.0,2.0,96,0.00,,---,0.00,VWS V14.01,2013-03-16 14:30:00,
2013-03-16 10:34:00,32.7,31.7,29.75,SE,143,0.0,1.0,96,0.00,,---,0.00,VWS V14.01,2013-03-16 14:34:00,
2013-03-16 10:39:00,32.7,31.7,29.74,SE,143,0.0,2.0,96,0.00,,---,0.00,VWS V14.01,2013-03-16 14:39:00,
2013-03-16 10:44:00,32.8,31.8,29.75,SE,143,0.0,2.0,96,0.00,,---,0.00,VWS V14.01,2013-03-16 14:44:00,
2013-03-16 10:49:00,32.8,31.8,29.74,SE,143,0.0,2.0,96,0.00,,---,0.00,VWS V14.01,2013-03-16 14:49:00,
2013-03-16 10:54:00,32.8,31.8,29.74,SE,143,0.0,2.0,96,0.00,,---,0.00,VWS V14.01,2013-03-16 14:54:00,
2013-03-16 10:59:00,32.9,31.9,29.73,SE,143,0.0,0.0,96,0.00,,---,0.00,VWS V14.01,2013-03-16 14:59:00,
2013-03-16 11:00:00,32.9,31.9,29.73,SE,143,0.0,2.0,96,0.00,,---,0.00,VWS V14.01,2013-03-16 15:00:00,
2013-03-16 11:04:00,33.0,32.0,29.73,SE,143,0.0,1.0,96,0.00,,---,0.00,VWS V14.01,2013-03-16 15:04:00,
2013-03-16 11:09:00,33.0,32.0,29.73,SE,143,0.0,1.0,96,0.00,,---,0.00,VWS V14.01,2013-03-16 15:09:00,
2013-03-16 11:14:00,33.0,32.0,29.73,SE,143,0.0,1.0,96,0.00,,---,0.00,VWS V14.01,2013-03-16 15:14:00,
2013-03-16 11:19:00,33.0,32.0,29.73,SE,143,0.0,1.0,96,0.00,,---,0.00,VWS V14.01,2013-03-16 15:19:00,
2013-03-16 11:24:00,33.1,32.1,29.73,SE,143,0.0,1.0,96,0.00,,---,0.00,VWS V14.01,2013-03-16 15:24:00,
2013-03-16 11:29:00,33.2,32.2,29.73,SE,143,0.0,0.0,96,0.00,,---,0.00,VWS V14.01,2013-03-16 15:29:00,
2013-03-16 11:30:00,33.2,32.2,29.73,SE,143,0.0,1.0,96,0.00,,---,0.00,VWS V14.01,2013-03-16 15:30:00,
2013-03-16 11:34:00,33.2,32.2,29.73,SE,143,0.0,0.0,96,0.00,,---,0.00,VWS V14.01,2013-03-16 15:34:00,
2013-03-16 11:39:00,33.3,32.3,29.72,SE,143,0.0,1.0,96,0.00,,---,0.00,VWS V14.01,2013-03-16 15:39:00,
2013-03-16 11:44:00,33.3,32.3,29.73,SE,143,0.0,1.0,96,0.00,,---,0.00,VWS V14.01,2013-03-16 15:44:00,
2013-03-16 11:49:00,33.4,32.4,29.72,SE,143,0.0,1.0,96,0.00,,---,0.00,VWS V14.01,2013-03-16 15:49:00,
2013-03-16 11:54:00,33.4,32.4,29.72,SE,143,0.0,1.0,96,0.00,,---,0.00,VWS V14.01,2013-03-16 15:54:00,
2013-03-16 11:59:00,33.5,32.5,29.72,SE,143,0.0,0.0,96,0.00,,---,0.00,VWS V14.01,2013-03-16 15:59:00,
2013-03-16 12:00:00,33.4,32.4,29.72,SE,143,0.0,1.0,96,0.00,,---,0.00,VWS V14.01,2013-03-16 16:00:00,
2013-03-16 12:04:00,33.5,32.5,29.71,SE,143,0.0,0.0,96,0.00,,---,0.00,VWS V14.01,2013-03-16 16:04:00,
2013-03-16 12:09:00,33.6,32.6,29.71,SE,143,0.0,0.0,96,0.00,,---,0.00,VWS V14.01,2013-03-16 16:09:00,
2013-03-16 12:14:00,33.7,32.7,29.71,SE,143,0.0,2.0,96,0.00,,---,0.00,VWS V14.01,2013-03-16 16:14:00,
2013-03-16 12:19:00,33.8,32.8,29.72,SE,143,0.0,2.0,96,0.00,,---,0.00,VWS V14.01,2013-03-16 16:19:00,
2013-03-16 12:24:00,33.8,32.8,29.72,SE,143,0.0,2.0,96,0.00,,---,0.00,VWS V14.01,2013-03-16 16:24:00,
2013-03-16 12:29:00,33.8,32.8,29.72,SE,143,0.0,1.0,96,0.00,,---,0.00,VWS V14.01,2013-03-16 16:29:00,
2013-03-16 12:30:00,33.8,32.8,29.72,SE,143,0.0,2.0,96,0.00,,---,0.00,VWS V14.01,2013-03-16 16:30:00,
2013-03-16 12:34:00,33.8,32.8,29.72,SE,143,0.0,1.0,96,0.00,,---,0.00,VWS V14.01,2013-03-16 16:34:00,
2013-03-16 12:39:00,33.8,32.8,29.72,SE,143,0.0,1.0,96,0.00,,---,0.00,VWS V14.01,2013-03-16 16:39:00,
2013-03-16 12:44:00,33.9,32.9,29.72,SE,143,0.0,1.0,96,0.00,,---,0.00,VWS V14.01,2013-03-16 16:44:00,
2013-03-16 12:49:00,33.9,32.9,29.73,SE,143,0.0,2.0,96,0.00,,---,0.00,VWS V14.01,2013-03-16 16:49:00,
2013-03-16 12:54:00,33.8,32.8,29.73,SE,143,1.0,2.0,96,0.00,,---,0.00,VWS V14.01,2013-03-16 16:54:00,
2013-03-16 12:59:00,33.8,32.8,29.74,SE,143,1.0,2.0,96,0.00,,---,0.00,VWS V14.01,2013-03-16 16:59:00,
2013-03-16 13:00:00,33.8,32.8,29.74,SE,143,0.0,2.0,96,0.00,,---,0.00,VWS V14.01,2013-03-16 17:00:00,
2013-03-16 13:04:00,33.8,32.8,29.74,SE,143,1.0,2.0,96,0.00,,---,0.00,VWS V14.01,2013-03-16 17:04:00,
2013-03-16 13:09:00,33.9,32.9,29.74,SE,143,0.0,2.0,96,0.00,,---,0.00,VWS V14.01,2013-03-16 17:09:00,
2013-03-16 13:14:00,33.9,32.9,29.74,SE,143,0.0,2.0,96,0.00,,---,0.00,VWS V14.01,2013-03-16 17:14:00,
2013-03-16 13:19:00,33.9,32.9,29.75,SE,143,0.0,3.0,96,0.00,,---,0.00,VWS V14.01,2013-03-16 17:19:00,
2013-03-16 13:24:00,33.9,32.9,29.75,NNE,32,0.0,5.0,96,0.00,,---,0.00,VWS V14.01,2013-03-16 17:24:00,
2013-03-16 13:29:00,34.0,33.0,29.75,NNE,32,0.0,1.0,96,0.00,,---,0.00,VWS V14.01,2013-03-16 17:29:00,
2013-03-16 13:30:00,33.9,32.9,29.75,NNE,32,1.0,5.0,96,0.00,,---,0.00,VWS V14.01,2013-03-16 17:30:00,
2013-03-16 13:34:00,34.0,33.0,29.75,NNE,23,0.0,6.0,96,0.00,,---,0.00,VWS V14.01,2013-03-16 17:34:00,
2013-03-16 13:39:00,34.0,33.0,29.75,NNE,21,1.0,6.0,96,0.00,,---,0.00,VWS V14.01,2013-03-16 17:39:00,
2013-03-16 13:44:00,33.9,32.9,29.75,NE,46,0.0,6.0,96,0.00,,---,0.00,VWS V14.01,2013-03-16 17:44:00,
2013-03-16 13:49:00,34.0,33.0,29.76,NE,40,3.0,6.0,96,0.00,,---,0.00,VWS V14.01,2013-03-16 17:49:00,
2013-03-16 13:54:00,34.0,33.0,29.76,NE,42,3.0,6.0,96,0.00,,---,0.00,VWS V14.01,2013-03-16 17:54:00,
2013-03-16 13:59:00,33.4,32.1,29.76,NW,315,2.0,5.0,95,0.00,,---,0.00,VWS V14.01,2013-03-16 17:59:00,
2013-03-16 14:00:00,34.0,33.0,29.77,NE,42,3.0,6.0,96,0.00,,---,0.00,VWS V14.01,2013-03-16 18:00:00,
2013-03-16 14:04:00,32.8,31.5,29.76,NW,320,2.0,6.0,95,0.00,,---,0.00,VWS V14.01,2013-03-16 18:04:00,
2013-03-16 14:09:00,32.7,31.4,29.77,NW,311,2.0,6.0,95,0.00,,---,0.00,VWS V14.01,2013-03-16 18:09:00,
2013-03-16 14:14:00,32.3,31.0,29.77,NW,317,4.0,6.0,95,0.00,,---,0.00,VWS V14.01,2013-03-16 18:14:00,
2013-03-16 14:19:00,32.1,31.1,29.78,NW,317,4.0,7.0,96,0.00,,---,0.00,VWS V14.01,2013-03-16 18:19:00,
2013-03-16 14:24:00,31.9,30.6,29.78,NW,324,1.0,7.0,95,0.00,,---,0.00,VWS V14.01,2013-03-16 18:24:00,
2013-03-16 14:29:00,31.6,30.6,29.78,NNW,333,5.0,7.0,96,0.00,,---,0.00,VWS V14.01,2013-03-16 18:29:00,
2013-03-16 14:30:00,31.8,30.8,29.78,NNW,336,5.0,9.0,96,0.00,,---,0.00,VWS V14.01,2013-03-16 18:30:00,
2013-03-16 14:34:00,31.4,30.4,29.79,NNW,335,2.0,7.0,96,0.00,,---,0.00,VWS V14.01,2013-03-16 18:34:00,
2013-03-16 14:40:00,31.3,30.3,29.79,NW,316,1.0,7.0,96,0.00,,---,0.00,VWS V14.01,2013-03-16 18:40:00,
2013-03-16 14:45:00,31.0,30.0,29.79,North,3,4.0,7.0,96,0.00,,---,0.00,VWS V14.01,2013-03-16 18:45:00,
2013-03-16 14:50:00,30.8,29.8,29.80,NE,34,1.0,8.0,96,0.00,,---,0.00,VWS V14.01,2013-03-16 18:50:00,
2013-03-16 14:55:00,30.7,29.7,29.80,NNW,337,0.0,8.0,96,0.00,,---,0.00,VWS V14.01,2013-03-16 18:55:00,
2013-03-16 15:00:00,30.7,29.7,29.80,NW,322,6.0,6.0,96,0.00,,---,0.00,VWS V14.01,2013-03-16 19:00:00,
2013-03-16 15:05:00,30.4,29.4,29.80,NNW,338,6.0,9.0,96,0.00,,---,0.00,VWS V14.01,2013-03-16 19:05:00,
2013-03-16 15:10:00,30.3,29.3,29.81,NNW,332,2.0,9.0,96,0.00,,---,0.00,VWS V14.01,2013-03-16 19:10:00,
2013-03-16 15:15:00,30.4,29.4,29.81,NE,44,2.0,9.0,96,0.00,,---,0.00,VWS V14.01,2013-03-16 19:15:00,
2013-03-16 15:20:00,30.5,29.5,29.82,North,8,4.0,9.0,96,0.00,,---,0.00,VWS V14.01,2013-03-16 19:20:00,
2013-03-16 15:25:00,30.4,29.4,29.82,North,353,2.0,9.0,96,0.00,,---,0.00,VWS V14.01,2013-03-16 19:25:00,
2013-03-16 15:30:00,30.2,29.2,29.82,NE,49,8.0,12.0,96,0.00,,---,0.00,VWS V14.01,2013-03-16 19:30:00,
2013-03-16 15:35:00,30.1,29.1,29.83,NNE,19,3.0,12.0,96,0.00,,---,0.00,VWS V14.01,2013-03-16 19:35:00,
2013-03-16 15:40:00,29.9,28.9,29.83,North,4,2.0,12.0,96,0.00,,---,0.00,VWS V14.01,2013-03-16 19:40:00,
2013-03-16 15:45:00,29.9,28.9,29.84,NNW,347,2.0,12.0,96,0.00,,---,0.00,VWS V14.01,2013-03-16 19:45:00,
2013-03-16 15:50:00,29.7,28.7,29.84,North,1,4.0,12.0,96,0.00,,---,0.00,VWS V14.01,2013-03-16 19:50:00,
2013-03-16 15:55:00,29.8,28.8,29.84,NNE,30,2.0,12.0,96,0.00,,---,0.00,VWS V14.01,2013-03-16 19:55:00,
2013-03-16 16:00:00,29.8,28.5,29.84,NNE,27,0.0,4.0,95,0.00,,---,0.00,VWS V14.01,2013-03-16 20:00:00,
2013-03-16 16:05:00,29.8,28.5,29.84,North,355,2.0,7.0,95,0.00,,---,0.00,VWS V14.01,2013-03-16 20:05:00,
2013-03-16 16:10:00,29.8,28.5,29.84,NNW,343,2.0,7.0,95,0.00,,---,0.00,VWS V14.01,2013-03-16 20:10:00,
2013-03-16 16:15:00,29.8,28.5,29.85,NNE,17,0.0,7.0,95,0.00,,---,0.00,VWS V14.01,2013-03-16 20:15:00,
2013-03-16 16:20:00,29.8,28.5,29.85,NNE,17,2.0,7.0,95,0.00,,---,0.00,VWS V14.01,2013-03-16 20:20:00,
2013-03-16 16:25:00,29.8,28.5,29.86,North,357,3.0,7.0,95,0.00,,---,0.00,VWS V14.01,2013-03-16 20:25:00,
2013-03-16 16:30:00,29.7,28.5,29.86,NNW,342,4.0,6.0,95,0.00,,---,0.00,VWS V14.01,2013-03-16 20:30:00,
2013-03-16 16:35:00,29.7,28.5,29.87,North,351,4.0,6.0,95,0.00,,---,0.00,VWS V14.01,2013-03-16 20:35:00,
2013-03-16 16:40:00,29.6,28.1,29.87,North,3,2.0,6.0,94,0.00,,---,0.00,VWS V14.01,2013-03-16 20:40:00,
2013-03-16 16:45:00,29.6,28.1,29.87,NNE,26,1.0,7.0,94,0.00,,---,0.00,VWS V14.01,2013-03-16 20:45:00,
2013-03-16 16:50:00,29.5,28.0,29.88,North,358,2.0,7.0,94,0.00,,---,0.00,VWS V14.01,2013-03-16 20:50:00,
2013-03-16 16:55:00,29.5,28.0,29.88,NNE,26,3.0,7.0,94,0.00,,---,0.00,VWS V14.01,2013-03-16 20:55:00,
2013-03-16 17:00:00,29.5,28.0,29.88,NNE,18,2.0,5.0,94,0.00,,---,0.00,VWS V14.01,2013-03-16 21:00:00,
2013-03-16 17:05:00,29.4,27.9,29.89,NNE,15,5.0,6.0,94,0.00,,---,0.00,VWS V14.01,2013-03-16 21:05:00,
2013-03-16 17:10:00,29.3,27.8,29.89,North,5,4.0,8.0,94,0.00,,---,0.00,VWS V14.01,2013-03-16 21:10:00,
2013-03-16 17:15:00,29.4,27.9,29.89,NNE,14,1.0,8.0,94,0.00,,---,0.00,VWS V14.01,2013-03-16 21:15:00,
2013-03-16 17:20:00,29.4,27.9,29.90,NNW,330,2.0,8.0,94,0.00,,---,0.00,VWS V14.01,2013-03-16 21:20:00,
2013-03-16 17:25:00,29.4,27.9,29.90,NNE,33,5.0,8.0,94,0.00,,---,0.00,VWS V14.01,2013-03-16 21:25:00,
2013-03-16 17:30:00,29.5,27.7,29.90,North,3,0.0,4.0,93,0.00,,---,0.00,VWS V14.01,2013-03-16 21:30:00,
2013-03-16 17:35:00,29.4,27.6,29.91,North,355,2.0,4.0,93,0.00,,---,0.00,VWS V14.01,2013-03-16 21:35:00,
2013-03-16 17:40:00,29.6,27.8,29.91,NNE,13,0.0,4.0,93,0.00,,---,0.00,VWS V14.01,2013-03-16 21:40:00,
2013-03-16 17:46:00,29.7,27.9,29.91,NNE,20,2.0,5.0,93,0.00,,---,0.00,VWS V14.01,2013-03-16 21:46:00,
2013-03-16 17:51:00,29.7,27.9,29.92,NNE,15,3.0,6.0,93,0.00,,---,0.00,VWS V14.01,2013-03-16 21:51:00,
2013-03-16 17:56:00,29.7,27.7,29.92,NNE,19,0.0,8.0,92,0.00,,---,0.00,VWS V14.01,2013-03-16 21:56:00,
2013-03-16 18:00:00,29.7,27.7,29.92,NNE,19,1.0,8.0,92,0.00,,---,0.00,VWS V14.01,2013-03-16 22:00:00,
2013-03-16 18:01:00,29.7,27.7,29.92,NW,323,2.0,5.0,92,0.00,,---,0.00,VWS V14.01,2013-03-16 22:01:00,
2013-03-16 18:06:00,29.7,27.7,29.92,North,8,1.0,5.0,92,0.00,,---,0.00,VWS V14.01,2013-03-16 22:06:00,
2013-03-16 18:11:00,29.7,27.7,29.92,NNW,330,0.0,5.0,92,0.00,,---,0.00,VWS V14.01,2013-03-16 22:11:00,
2013-03-16 18:16:00,29.5,27.5,29.93,NNW,339,2.0,5.0,92,0.00,,---,0.00,VWS V14.01,2013-03-16 22:16:00,
2013-03-16 18:21:00,29.4,27.1,29.93,NNE,26,3.0,5.0,91,0.00,,---,0.00,VWS V14.01,2013-03-16 22:21:00,
2013-03-16 18:26:00,29.4,27.1,29.94,NNE,20,2.0,5.0,91,0.00,,---,0.00,VWS V14.01,2013-03-16 22:26:00,
2013-03-16 18:30:00,29.4,27.1,29.94,NNW,346,2.0,5.0,91,0.00,,---,0.00,VWS V14.01,2013-03-16 22:30:00,
2013-03-16 18:31:00,29.3,26.7,29.94,NW,325,2.0,6.0,90,0.00,,---,0.00,VWS V14.01,2013-03-16 22:31:00,
2013-03-16 18:36:00,29.2,26.6,29.94,NNE,24,1.0,6.0,90,0.00,,---,0.00,VWS V14.01,2013-03-16 22:36:00,
2013-03-16 18:42:00,29.1,26.8,29.95,NNE,22,2.0,6.0,91,0.00,,---,0.00,VWS V14.01,2013-03-16 22:42:00,
2013-03-16 18:47:00,29.1,26.8,29.95,North,358,3.0,6.0,91,0.00,,---,0.00,VWS V14.01,2013-03-16 22:47:00,
2013-03-16 18:52:00,28.9,26.3,29.95,NNW,330,2.0,6.0,90,0.00,,---,0.00,VWS V14.01,2013-03-16 22:52:00,
2013-03-16 18:57:00,28.8,26.2,29.95,NNW,333,0.0,7.0,90,0.00,,---,0.00,VWS V14.01,2013-03-16 22:57:00,
2013-03-16 19:00:00,28.8,26.2,29.95,NNW,333,1.0,7.0,90,0.00,,---,0.00,VWS V14.01,2013-03-16 23:00:00,
2013-03-16 19:02:00,28.8,26.2,29.96,NW,317,1.0,5.0,90,0.00,,---,0.00,VWS V14.01,2013-03-16 23:02:00,
2013-03-16 19:07:00,28.7,26.1,29.96,NW,323,4.0,6.0,90,0.00,,---,0.00,VWS V14.01,2013-03-16 23:07:00,
2013-03-16 19:12:00,28.7,26.1,29.96,NNE,23,3.0,6.0,90,0.00,,---,0.00,VWS V14.01,2013-03-16 23:12:00,
2013-03-16 19:17:00,28.6,26.0,29.96,North,355,0.0,6.0,90,0.00,,---,0.00,VWS V14.01,2013-03-16 23:17:00,
2013-03-16 19:22:00,28.6,26.0,29.97,NE,39,6.0,6.0,90,0.00,,---,0.00,VWS V14.01,2013-03-16 23:22:00,
2013-03-16 19:27:00,28.7,26.1,29.97,NNE,26,0.0,6.0,90,0.00,,---,0.00,VWS V14.01,2013-03-16 23:27:00,
2013-03-16 19:30:00,28.7,26.1,29.97,NNE,26,0.0,6.0,90,0.00,,---,0.00,VWS V14.01,2013-03-16 23:30:00,
2013-03-16 19:32:00,28.7,26.1,29.98,NE,47,5.0,8.0,90,0.00,,---,0.00,VWS V14.01,2013-03-16 23:32:00,
2013-03-16 19:37:00,28.5,26.0,29.99,NE,36,3.0,8.0,90,0.00,,---,0.00,VWS V14.01,2013-03-16 23:37:00,
2013-03-16 19:42:00,28.5,26.0,29.99,NW,321,4.0,8.0,90,0.00,,---,0.00,VWS V14.01,2013-03-16 23:42:00,
2013-03-16 19:47:00,28.4,25.6,29.99,NW,321,0.0,8.0,89,0.00,,---,0.00,VWS V14.01,2013-03-16 23:47:00,
2013-03-16 19:52:00,28.4,25.9,29.99,NNW,335,4.0,8.0,90,0.00,,---,0.00,VWS V14.01,2013-03-16 23:52:00,
2013-03-16 19:57:00,28.4,25.9,29.99,NNE,13,0.0,0.0,90,0.00,,---,0.00,VWS V14.01,2013-03-16 23:57:00,
2013-03-16 20:00:00,28.4,25.9,29.99,NNE,13,0.0,8.0,90,0.00,,---,0.00,VWS V14.01,2013-03-17 00:00:00,
2013-03-16 20:02:00,28.4,25.9,29.99,NNW,334,1.0,3.0,90,0.00,,---,0.00,VWS V14.01,2013-03-17 00:02:00,
2013-03-16 20:07:00,28.3,25.8,30.00,NNW,338,0.0,4.0,90,0.00,,---,0.00,VWS V14.01,2013-03-17 00:07:00,
2013-03-16 20:12:00,28.3,25.5,30.00,North,3,2.0,6.0,89,0.00,,---,0.00,VWS V14.01,2013-03-17 00:12:00,
2013-03-16 20:17:00,28.3,25.8,30.00,North,3,1.0,6.0,90,0.00,,---,0.00,VWS V14.01,2013-03-17 00:17:00,
2013-03-16 20:22:00,28.4,25.9,30.01,NNE,28,1.0,6.0,90,0.00,,---,0.00,VWS V14.01,2013-03-17 00:22:00,
2013-03-16 20:28:00,28.3,25.5,30.01,NE,34,2.0,3.0,89,0.00,,---,0.00,VWS V14.01,2013-03-17 00:28:00,
2013-03-16 20:30:00,28.4,25.9,30.01,NE,34,3.0,6.0,90,0.00,,---,0.00,VWS V14.01,2013-03-17 00:30:00,
2013-03-16 20:32:00,28.3,25.5,30.01,NE,34,0.0,3.0,89,0.00,,---,0.00,VWS V14.01,2013-03-17 00:32:00,
2013-03-16 20:38:00,28.3,25.5,30.01,NNW,340,1.0,3.0,89,0.00,,---,0.00,VWS V14.01,2013-03-17 00:38:00,
2013-03-16 20:43:00,28.3,25.5,30.02,NNW,344,2.0,4.0,89,0.00,,---,0.00,VWS V14.01,2013-03-17 00:43:00,
2013-03-16 20:48:00,28.3,25.5,30.02,NNE,29,2.0,4.0,89,0.00,,---,0.00,VWS V14.01,2013-03-17 00:48:00,
2013-03-16 20:53:00,28.3,25.5,30.02,NNW,334,1.0,4.0,89,0.00,,---,0.00,VWS V14.01,2013-03-17 00:53:00,
2013-03-16 20:58:00,28.3,25.5,30.02,NNW,334,2.0,2.0,89,0.00,,---,0.00,VWS V14.01,2013-03-17 00:58:00,
2013-03-16 21:00:00,28.3,25.5,30.02,NNW,334,2.0,4.0,89,0.00,,---,0.00,VWS V14.01,2013-03-17 01:00:00,
2013-03-16 21:03:00,28.3,25.5,30.02,NNE,33,0.0,5.0,89,0.00,,---,0.00,VWS V14.01,2013-03-17 01:03:00,
2013-03-16 21:08:00,28.3,25.5,30.02,NNE,24,0.0,5.0,89,0.00,,---,0.00,VWS V14.01,2013-03-17 01:08:00,
2013-03-16 21:13:00,28.3,25.5,30.02,NNE,24,0.0,5.0,89,0.00,,---,0.00,VWS V14.01,2013-03-17 01:13:00,
2013-03-16 21:18:00,28.3,25.5,30.03,NNE,24,0.0,5.0,89,0.00,,---,0.00,VWS V14.01,2013-03-17 01:18:00,
2013-03-16 21:23:00,28.3,25.5,30.02,NNE,28,0.0,5.0,89,0.00,,---,0.00,VWS V14.01,2013-03-17 01:23:00,
2013-03-16 21:28:00,28.4,25.6,30.03,NNE,28,0.0,0.0,89,0.00,,---,0.00,VWS V14.01,2013-03-17 01:28:00,
2013-03-16 21:30:00,28.4,25.6,30.03,NNE,28,0.0,5.0,89,0.00,,---,0.00,VWS V14.01,2013-03-17 01:30:00,
2013-03-16 21:33:00,28.4,25.6,30.03,NNE,28,2.0,2.0,89,0.00,,---,0.00,VWS V14.01,2013-03-17 01:33:00,
2013-03-16 21:38:00,28.4,25.6,30.03,NNE,28,0.0,2.0,89,0.00,,---,0.00,VWS V14.01,2013-03-17 01:38:00,
2013-03-16 21:43:00,28.4,25.6,30.04,NNE,28,0.0,2.0,89,0.00,,---,0.00,VWS V14.01,2013-03-17 01:43:00,
2013-03-16 21:48:00,28.4,25.6,30.04,NNE,28,0.0,2.0,89,0.00,,---,0.00,VWS V14.01,2013-03-17 01:48:00,
2013-03-16 21:53:00,28.4,25.6,30.04,NNE,28,0.0,2.0,89,0.00,,---,0.00,VWS V14.01,2013-03-17 01:53:00,
2013-03-16 21:58:00,28.4,25.6,30.04,NNE,28,0.0,0.0,89,0.00,,---,0.00,VWS V14.01,2013-03-17 01:58:00,
2013-03-16 22:00:00,28.5,25.7,30.04,NNE,28,0.0,2.0,89,0.00,,---,0.00,VWS V14.01,2013-03-17 02:00:00,
2013-03-16 22:03:00,28.5,25.7,30.04,NNE,28,2.0,2.0,89,0.00,,---,0.00,VWS V14.01,2013-03-17 02:03:00,
2013-03-16 22:08:00,28.5,25.7,30.04,NNE,28,2.0,2.0,89,0.00,,---,0.00,VWS V14.01,2013-03-17 02:08:00,
2013-03-16 22:13:00,28.5,25.7,30.05,NNE,28,0.0,2.0,89,0.00,,---,0.00,VWS V14.01,2013-03-17 02:13:00,
2013-03-16 22:18:00,28.5,25.7,30.04,NNE,28,0.0,2.0,89,0.00,,---,0.00,VWS V14.01,2013-03-17 02:18:00,
2013-03-16 22:23:00,28.5,25.7,30.05,NNE,28,0.0,2.0,89,0.00,,---,0.00,VWS V14.01,2013-03-17 02:23:00,
2013-03-16 22:28:00,28.5,25.7,30.05,NNE,28,0.0,0.0,89,0.00,,---,0.00,VWS V14.01,2013-03-17 02:28:00,
2013-03-16 22:30:00,28.6,25.8,30.05,NNE,28,0.0,2.0,89,0.00,,---,0.00,VWS V14.01,2013-03-17 02:30:00,
2013-03-16 22:33:00,28.5,25.7,30.05,NNE,28,0.0,0.0,89,0.00,,---,0.00,VWS V14.01,2013-03-17 02:33:00,
2013-03-16 22:38:00,28.5,25.7,30.05,NNE,28,0.0,0.0,89,0.00,,---,0.00,VWS V14.01,2013-03-17 02:38:00,
2013-03-16 22:43:00,28.5,25.7,30.05,NNE,28,0.0,0.0,89,0.00,,---,0.00,VWS V14.01,2013-03-17 02:43:00,
2013-03-16 22:48:00,28.6,25.8,30.05,NNE,28,0.0,0.0,89,0.00,,---,0.00,VWS V14.01,2013-03-17 02:48:00,
2013-03-16 22:53:00,28.6,25.8,30.05,NNE,28,0.0,1.0,89,0.00,,---,0.00,VWS V14.01,2013-03-17 02:53:00,
2013-03-16 22:58:00,28.6,25.8,30.05,NNE,28,0.0,0.0,89,0.00,,---,0.00,VWS V14.01,2013-03-17 02:58:00,
2013-03-16 23:00:00,28.6,25.8,30.05,NNE,28,0.0,1.0,89,0.00,,---,0.00,VWS V14.01,2013-03-17 03:00:00,
2013-03-16 23:03:00,28.6,25.8,30.05,NNE,28,0.0,1.0,89,0.00,,---,0.00,VWS V14.01,2013-03-17 03:03:00,
2013-03-16 23:08:00,28.6,25.8,30.05,NNE,28,0.0,1.0,89,0.00,,---,0.00,VWS V14.01,2013-03-17 03:08:00,
2013-03-16 23:13:00,28.6,25.8,30.05,NNE,28,0.0,1.0,89,0.00,,---,0.00,VWS V14.01,2013-03-17 03:13:00,
2013-03-16 23:18:00,28.6,25.8,30.05,NNE,28,0.0,2.0,89,0.00,,---,0.00,VWS V14.01,2013-03-17 03:18:00,
2013-03-16 23:23:00,28.6,26.0,30.05,NNE,28,0.0,2.0,90,0.00,,---,0.00,VWS V14.01,2013-03-17 03:23:00,
2013-03-16 23:28:00,28.7,26.1,30.05,NNE,28,2.0,2.0,90,0.00,,---,0.00,VWS V14.01,2013-03-17 03:28:00,
2013-03-16 23:30:00,28.7,26.1,30.06,NNE,28,0.0,2.0,90,0.00,,---,0.00,VWS V14.01,2013-03-17 03:30:00,
2013-03-16 23:33:00,28.5,25.7,30.06,North,355,1.0,3.0,89,0.00,,---,0.00,VWS V14.01,2013-03-17 03:33:00,
2013-03-16 23:38:00,28.5,25.7,30.05,North,355,0.0,3.0,89,0.00,,---,0.00,VWS V14.01,2013-03-17 03:38:00,
2013-03-16 23:43:00,28.5,25.7,30.05,NW,322,1.0,5.0,89,0.00,,---,0.00,VWS V14.01,2013-03-17 03:43:00,
2013-03-16 23:48:00,28.5,25.7,30.06,NW,322,0.0,5.0,89,0.00,,---,0.00,VWS V14.01,2013-03-17 03:48:00,
2013-03-16 23:53:00,28.5,25.7,30.06,NW,322,1.0,5.0,89,0.00,,---,0.00,VWS V14.01,2013-03-17 03:53:00,
2013-03-16 23:58:00,28.4,25.6,30.06,NW,322,0.0,0.0,89,0.00,,---,0.00,VWS V14.01,2013-03-17 03:58:00,